This demonstration page uses our WeatherBlox Daily Observations layout. Learn more.

Left ArrowRight Arrow

44.8408, -93.29828

Hourly Observations for September 8, 2020

Temp ( °F °C ) Dew Point ( °F °C ) Humidity (%) Winds ( mph kmh ) Pressure ( in mb ) Visibility ( mi km ) Precip ( " mm )
12:53 am 00:53 Mostly Cloudy 50 10 47 8.3 89 89 N 8 13 30.16 1021 10 16 0.00 0.00
1:53 am 01:53 Mostly Cloudy 49 9.4 45 7.2 86 86 N 8 13 30.18 1022 10 16 0.00 0.00
2:53 am 02:53 Mostly Cloudy 48 8.9 44 6.7 86 86 N 7 11 30.18 1022 10 16 0.00 0.00
3:53 am 03:53 Cloudy 48 8.9 43 6.1 83 83 N 9 15 30.22 1024 10 16 0.00 0.00
4:53 am 04:53 Cloudy 47 8.3 42 5.6 83 83 N 13 20 30.22 1024 10 16 0.00 0.00
5:53 am 05:53 Cloudy 46 7.8 41 5 83 83 N 13 20 30.26 1025 10 16 0.00 0.00
6:53 am 06:53 Cloudy 46 7.8 40 4.4 79 79 NNE 9 15 30.26 1025 10 16 0.00 0.00
7:53 am 07:53 Cloudy 46 7.8 40 4.4 79 79 N 9 15 30.29 1026 10 16 0.00 0.00
8:53 am 08:53 Cloudy 45 7.2 40 4.4 83 83 N 10 17 30.30 1026 10 16 0.00 0.00
9:53 am 09:53 Cloudy 47 8.3 41 5 80 80 N 10 17 30.34 1028 10 16 0.00 0.00
10:53 am 10:53 Cloudy 47 8.3 41 5 80 80 N 10 17 30.34 1027 10 16 0.00 0.00
11:53 am 11:53 Cloudy 52 11.1 42 5.6 69 69 N 13 20 30.31 1026 10 16 0.00 0.00
12:53 pm 12:53 Cloudy 51 10.6 41 5 69 69 VRB 7 11 30.33 1027 10 16 0.00 0.00
1:53 pm 13:53 Cloudy 51 10.6 40 4.4 66 66 NNE 8 13 30.34 1027 10 16 0.00 0.00
2:53 pm 14:53 Cloudy 52 11.1 41 5 66 66 NNE 10 17 30.32 1027 10 16 0.00 0.00
3:53 pm 15:53 Cloudy 51 10.6 41 5 69 69 NNE 10 17 30.32 1027 10 16 0.00 0.00
4:53 pm 16:53 Cloudy 50 10 38 3.3 63 63 NNE 12 19 30.33 1027 10 16 0.00 0.00
5:53 pm 17:53 Cloudy 50 10 37 2.8 61 61 N 8 13 30.35 1028 10 16 0.00 0.00
6:53 pm 18:53 Cloudy 50 10 38 3.3 63 63 NNE 8 13 30.35 1028 10 16 0.00 0.00
7:53 pm 19:53 Cloudy 49 9.4 38 3.3 66 66 NNE 5 7 30.36 1028 10 16 0.00 0.00
8:53 pm 20:53 Cloudy 49 9.4 40 4.4 71 71 N 5 7 30.38 1029 10 16 0.00 0.00
9:53 pm 21:53 Cloudy 49 9.4 39 3.9 69 69 N 5 7 30.38 1029 10 16 0.00 0.00
10:53 pm 22:53 Cloudy 48 8.9 39 3.9 71 71 N 5 7 30.37 1029 10 16 0.00 0.00
11:53 pm 23:53 Cloudy 48 8.9 40 4.4 74 74 N 5 7 30.38 1029 10 16 0.00 0.00

Powered by AerisWeather